Location: Ash Observatory
(39.7321°N, 75.2004°W)
Time: 22:10:46
(UTC-04:00)

Envisat - Pass Details

Date: 29 March 2019
Orbit: 764 x 766 km, 98.2° (Epoch: 20 April)

Event Time Altitude Azimuth Distance (km) Brightness Sun altitude
Rises 20:16:38 0° 188° (S) 3,217 6.2 -11.2°
Reaches altitude 10° 20:19:06 10° 197° (SSW) 2,296 5.5 -11.7°
Maximum altitude 20:23:43 35° 263° (W) 1,220 4.7 -12.5°
Drops below altitude 10° 20:28:22 10° 329° (NNW) 2,309 6.2 -13.4°
Sets 20:30:52 0° 338° (NNW) 3,240 6.8 -13.8°
